DELTA 1 DEB, 7084

Orbit data source: Space-Track

DELTA 1 DEB, 7084 is space debris in SSO originally from a launch on Tue, 06 Nov 1973 UTC launched from the Air Force Western Test Range (AFWTR). Debris objects in space refer to the collection of defunct objects orbiting the Earth. Examples of debris include non-operational satellites, rocket bodies, and fragments generated from explosions, collisions, or faulty payload assembly.

Loading next visibility...
Identifier
7084, 1973-086CC
Orbit
SSO
Country
Flag of USUS
Related business
Manufacturer
Unknown
Mission
Spacecraft
Bus & Motor
Unknown
Mass
Unknown
Launch date (UTC)
1973-11-06 (53 years ago)
Launch vehicle
Unknown
Launch site
Air Force Western Test Range (AFWTR)
Object type
Payload
Rocket body
Debris
Shape & HBR
Unknown shape, 0.2 m
Radar Cross Section
Medium (>0.1 m² and <1 m²)

Expand to show TLE details & history
Last TLE update: 1 day ago

TLE from 1 day ago
0 DELTA 1 DEB
1 07084U 73086CC  26236.57959867 -.00000038  00000-0  42207-4 0  9999
2 07084 101.8616 177.6401 0152783 223.4305 313.0639 12.25198266360652
Epoch: 2026-08-24T13:54Z
TLE epoch observation values (Epoch: 2026-08-24T13:54:37.325Z)
Latitude
4.62071°
Longitude
177.09319°
Altitude
1,490.113 km
Speed
7.156 km/s
True Right ascension
23h 54m 25s
True Declination
4° 35' 45"
Sunlit
Object was in full shadow at epoch
Visualization orbit readout
Latitude
Unknown
Longitude
Unknown
Altitude
Unknown
Speed
Unknown
Apparent Right ascension
Unknown
Apparent Declination
Unknown
Sunlit
N/A
Visualization observer readout
Local Sidereal Time
08:53:37
Azimuth
Unknown
Elevation
Unknown
Doppler factor
Unknown
Orbital elements
Apogee altitude
1,688.962 km
Perigee altitude
1,446.168 km
Semi-major axis
7,945.702 km
Eccentricity
0.01528
Inclination
101.8616°
RAAN
177.6401°
Arg. of periapsis
223.4305°
True anomaly
311.76802°
Mean anomaly
313.0639°
Eccentric anomaly
312.41765°
Mean motion
3.06439 °/min
Orbital period
117.48 mins
BSTAR
0.000042207
Loading maneuver chart data...
Computing Atmospheric mass density...
Loading historical data...
Loading historical data...
Loading historical data...
Loading historical data...
Loading historical data...
Loading historical data...
Loading historical data...

Documentation

Showing up to 5 results
|